,,PA_Meas_PMT16A,,PR_Meas_QMR101_102,,RH_Meas_QMH101,,SR_Meas_QMS101,,TA_Meas_QMH101,,GenWind,,GenWind,
time,status,PA,status,PR,status,RH,status,SR,status,TA,status,DirAvg,status,SpdAvg,
2011-01-01, 00:00:04,VALID,915.579,VALID,0,VALID,94.8277,VALID,0,VALID,20.5968,VALID,18,VALID,1.02344,
2011-01-01, 00:01:04,VALID,915.554,VALID,0,VALID,94.7438,VALID,0.107441,VALID,20.5773,VALID,17,VALID,0.7,
2011-01-01, 00:02:04,VALID,915.594,VALID,0,VALID,94.8582,VALID,0,VALID,20.5968,VALID,17,VALID,0.699219,
2011-01-01, 00:03:04,VALID,915.561,VALID,0,VALID,94.8887,VALID,0.107441,VALID,20.6374,VALID,17,VALID,1.03164,
2011-01-01, 00:04:04,VALID,915.563,VALID,0,VALID,94.6752,VALID,0,VALID,20.6179,VALID,17,VALID,1.05977,
2011-01-01, 00:05:04,VALID,915.6,VALID,0,VALID,94.5227,VALID,0.107441,VALID,20.5968,VALID,330,VALID,1.35859,
2011-01-01, 00:06:04,VALID,915.6,VALID,0,VALID,94.4236,VALID,0.107441,VALID,20.5578,VALID,330,VALID,0.7,
2011-01-01, 00:07:04,VALID,915.577,VALID,0,VALID,94.6142,VALID,0.107441,VALID,20.5773,VALID,330,VALID,0.638672,
2011-01-01, 00:08:04,VALID,915.579,VALID,0,VALID,94.599,VALID,0.107441,VALID,20.5773,VALID,330,VALID,1.01016,
2011-01-01, 00:09:04,VALID,915.551,VALID,0,VALID,94.5227,VALID,0.107441,VALID,20.5773,VALID,357,VALID,0.828906,
2011-01-01, 00:10:04,VALID,915.55,VALID,0,VALID,94.6066,VALID,0,VALID,20.5578,VALID,357,VALID,0.735156,
2011-01-01, 00:11:04,VALID,915.543,VALID,0,VALID,94.7133,VALID,0,VALID,20.5984,VALID,357,VALID,0.422656,
2011-01-01, 00:12:04,VALID,915.565,VALID,0,VALID,94.66,VALID,0,VALID,20.5773,VALID,357,VALID,0.317187,
2011-01-01, 00:13:04,VALID,915.574,VALID,0,VALID,94.6523,VALID,0.107441,VALID,20.5968,VALID,357,VALID,0.376563,
2011-01-01, 00:14:04,VALID,915.548,VALID,0,VALID,94.4617,VALID,0,VALID,20.5773,VALID,357,VALID,0.328906,
2011-01-01, 00:15:04,VALID,915.557,VALID,0,VALID,94.4389,VALID,0,VALID,20.5789,VALID,356,VALID,0.304688,
2011-01-01, 00:16:04,VALID,915.548,VALID,0,VALID,94.3703,VALID,0,VALID,20.6179,VALID,356,VALID,0,
2011-01-01, 00:17:04,VALID,915.515,VALID,0,VALID,94.2712,VALID,0,VALID,20.639,VALID,357,VALID,0.220703,
2011-01-01, 00:18:04,VALID,915.505,VALID,0,VALID,94.294,VALID,0,VALID,20.6374,VALID,356,VALID,0,
2011-01-01, 00:19:04,VALID,915.497,VALID,0,VALID,94.2407,VALID,0,VALID,20.678,VALID,356,VALID,0.0046875,
2011-01-01, 00:20:04,VALID,915.496,VALID,0,VALID,94.012,VALID,0,VALID,20.678,VALID,357,VALID,0.462891,
2011-01-01, 00:21:04,VALID,915.471,VALID,0,VALID,93.9129,VALID,0,VALID,20.6179,VALID,357,VALID,0.5625,
2011-01-01, 00:22:04,VALID,915.4,VALID,0,VALID,94.073,VALID,0,VALID,20.5984,VALID,357,VALID,0.573828,
2011-01-01, 00:23:04,VALID,915.378,VALID,0,VALID,94.1111,VALID,0,VALID,20.5594,VALID,357,VALID,0.155469,
2011-01-01, 00:24:04,VALID,915.355,VALID,0,VALID,94.2254,VALID,0,VALID,20.5999,VALID,356,VALID,0,
2011-01-01, 00:25:04,VALID,915.407,VALID,0,VALID,94.294,VALID,0,VALID,20.5594,VALID,357,VALID,0.133594,
2011-01-01, 00:26:04,VALID,915.409,VALID,0,VALID,94.3779,VALID,0,VALID,20.5594,VALID,356,VALID,0,
2011-01-01, 00:27:04,VALID,915.439,VALID,0,VALID,94.477,VALID,0,VALID,20.5594,VALID,357,VALID,0,
2011-01-01, 00:28:04,VALID,915.419,VALID,0,VALID,94.4846,VALID,0,VALID,20.5999,VALID,357,VALID,0.244141,
2011-01-01, 00:29:04,VALID,915.402,VALID,0,VALID,94.355,VALID,0,VALID,20.5999,VALID,356,VALID,0.201953,
2011-01-01, 00:30:04,VALID,915.383,VALID,0,VALID,94.1873,VALID,0,VALID,20.5804,VALID,357,VALID,0.307813,
2011-01-01, 00:31:04,VALID,915.36,VALID,0,VALID,94.2254,VALID,0,VALID,20.5609,VALID,357,VALID,0.580469,
2011-01-01, 00:32:04,VALID,915.382,VALID,0,VALID,94.2712,VALID,0,VALID,20.5414,VALID,357,VALID,0.308594,
2011-01-01, 00:33:04,VALID,915.399,VALID,0,VALID,94.3855,VALID,0,VALID,20.5219,VALID,357,VALID,0.344141,
2011-01-01, 00:34:04,VALID,915.414,VALID,0,VALID,94.4999,VALID,0,VALID,20.5219,VALID,357,VALID,0.377344,
2011-01-01, 00:35:04,VALID,915.38,VALID,0,VALID,94.4846,VALID,0,VALID,20.5219,VALID,357,VALID,0.360547,
2011-01-01, 00:36:04,VALID,915.339,VALID,0,VALID,94.4313,VALID,0,VALID,20.5219,VALID,357,VALID,0.549219,
2011-01-01, 00:37:04,VALID,915.303,VALID,0,VALID,94.4084,VALID,0,VALID,20.5009,VALID,357,VALID,0.459375,
2011-01-01, 00:38:04,VALID,915.265,VALID,0,VALID,94.5304,VALID,0,VALID,20.5204,VALID,356,VALID,0.380859,
2011-01-01, 00:39:04,VALID,915.26,VALID,0,VALID,94.5075,VALID,0,VALID,20.5414,VALID,356,VALID,0.382813,
2011-01-01, 00:40:04,VALID,915.299,VALID,0,VALID,94.5151,VALID,0,VALID,20.5219,VALID,357,VALID,0.5125,
2011-01-01, 00:41:04,VALID,915.305,VALID,0,VALID,94.5075,VALID,0,VALID,20.5414,VALID,356,VALID,0.455859,
2011-01-01, 00:42:04,VALID,915.302,VALID,0,VALID,94.477,VALID,0,VALID,20.5024,VALID,357,VALID,0.421094,
2011-01-01, 00:43:04,VALID,915.24,VALID,0,VALID,94.5761,VALID,0,VALID,20.5219,VALID,357,VALID,0.466406,
2011-01-01, 00:44:04,VALID,915.203,VALID,0,VALID,94.6295,VALID,0,VALID,20.5219,VALID,356,VALID,0.628125,
2011-01-01, 00:45:04,VALID,915.15,VALID,0,VALID,94.6447,VALID,0,VALID,20.5009,VALID,357,VALID,0.744531,
2011-01-01, 00:46:04,VALID,915.13,VALID,0,VALID,94.7286,VALID,0.107441,VALID,20.5009,VALID,357,VALID,0.43125,
2011-01-01, 00:47:04,VALID,915.078,VALID,0,VALID,94.8734,VALID,0,VALID,20.4813,VALID,357,VALID,0.554688,
2011-01-01, 00:48:04,VALID,915.062,VALID,0,VALID,94.9039,VALID,0.107441,VALID,20.5009,VALID,357,VALID,0.385156,
2011-01-01, 00:49:04,VALID,915.085,VALID,0,VALID,94.8582,VALID,0,VALID,20.5204,VALID,356,VALID,0.3375,
2011-01-01, 00:50:04,VALID,915.051,VALID,0,VALID,94.8353,VALID,0,VALID,20.5009,VALID,356,VALID,0.1,
2011-01-01, 00:51:04,VALID,915.128,VALID,0,VALID,94.8734,VALID,0,VALID,20.5009,VALID,357,VALID,0,
2011-01-01, 00:52:04,VALID,915.136,VALID,0,VALID,94.7286,VALID,0.107441,VALID,20.5204,VALID,356,VALID,0,
2011-01-01, 00:53:04,VALID,915.172,VALID,0,VALID,94.7286,VALID,0.107441,VALID,20.5204,VALID,357,VALID,0.0195313,
2011-01-01, 00:54:04,VALID,915.189,VALID,0,VALID,94.7286,VALID,0,VALID,20.5383,VALID,356,VALID,0.326953,
2011-01-01, 00:55:04,VALID,915.228,VALID,0,VALID,94.5609,VALID,0,VALID,20.5594,VALID,356,VALID,0.375391,
2011-01-01, 00:56:04,VALID,915.246,VALID,0,VALID,94.5304,VALID,0.107441,VALID,20.5984,VALID,356,VALID,0.025,
2011-01-01, 00:57:04,VALID,915.243,VALID,0,VALID,94.4313,VALID,0,VALID,20.5984,VALID,356,VALID,0.431641,
2011-01-01, 00:58:04,VALID,915.238,VALID,0,VALID,94.3931,VALID,0.107441,VALID,20.6179,VALID,356,VALID,0.39375,
2011-01-01, 00:59:04,VALID,915.225,VALID,0,VALID,94.2483,VALID,0,VALID,20.6163,VALID,356,VALID,0.588281,
2011-01-01, 01:00:04,VALID,915.163,VALID,0,VALID,93.9738,VALID,0,VALID,20.6194,VALID,357,VALID,0.596094,
2011-01-01, 01:01:04,VALID,915.134,VALID,0,VALID,93.8747,VALID,0,VALID,20.5999,VALID,357,VALID,0.594922,
2011-01-01, 01:02:04,VALID,915.084,VALID,0,VALID,93.7909,VALID,0,VALID,20.5789,VALID,357,VALID,0.205859,
2011-01-01, 01:03:04,VALID,915.078,VALID,0,VALID,93.7604,VALID,0,VALID,20.5399,VALID,356,VALID,0.304688,
2011-01-01, 01:04:04,VALID,915.088,VALID,0,VALID,93.8976,VALID,0,VALID,20.582,VALID,357,VALID,0.305469,
2011-01-01, 01:05:04,VALID,915.136,VALID,0,VALID,93.9967,VALID,0,VALID,20.5804,VALID,356,VALID,0,
2011-01-01, 01:06:04,VALID,915.144,VALID,0,VALID,93.8824,VALID,0,VALID,20.5414,VALID,357,VALID,0,
2011-01-01, 01:07:04,VALID,915.204,VALID,0,VALID,93.8747,VALID,0,VALID,20.5609,VALID,357,VALID,0.107031,
2011-01-01, 01:08:04,VALID,915.176,VALID,0,VALID,93.7756,VALID,0,VALID,20.5609,VALID,356,VALID,0,
2011-01-01, 01:09:04,VALID,915.172,VALID,0,VALID,93.6003,VALID,0,VALID,20.5609,VALID,357,VALID,0.103906,
2011-01-01, 01:10:04,VALID,915.141,VALID,0,VALID,93.2801,VALID,0,VALID,20.5625,VALID,356,VALID,0,
2011-01-01, 01:11:04,VALID,915.156,VALID,0,VALID,93.2877,VALID,0,VALID,20.5414,VALID,356,VALID,0,
2011-01-01, 01:12:04,VALID,915.15,VALID,0,VALID,93.5164,VALID,0,VALID,20.5219,VALID,357,VALID,0,
2011-01-01, 01:13:04,VALID,915.172,VALID,0,VALID,93.5546,VALID,0,VALID,20.5219,VALID,356,VALID,0,
2011-01-01, 01:14:04,VALID,915.137,VALID,0,VALID,93.6765,VALID,0,VALID,20.5024,VALID,357,VALID,0,
2011-01-01, 01:15:04,VALID,915.094,VALID,0,VALID,93.8366,VALID,0,VALID,20.5219,VALID,357,VALID,0,
2011-01-01, 01:16:04,VALID,915.077,VALID,0,VALID,93.7909,VALID,0,VALID,20.5219,VALID,356,VALID,0,
2011-01-01, 01:17:04,VALID,915.025,VALID,0,VALID,93.6765,VALID,0,VALID,20.5219,VALID,357,VALID,0,
2011-01-01, 01:18:04,VALID,914.983,VALID,0,VALID,93.5851,VALID,0,VALID,20.5219,VALID,357,VALID,0.408984,
2011-01-01, 01:19:04,VALID,914.953,VALID,0,VALID,93.4555,VALID,0,VALID,20.5024,VALID,356,VALID,0.387109,
2011-01-01, 01:20:04,VALID,914.943,VALID,0,VALID,93.5012,VALID,0,VALID,20.4634,VALID,357,VALID,0.425,
2011-01-01, 01:21:04,VALID,914.968,VALID,0,VALID,93.7528,VALID,0,VALID,20.4244,VALID,357,VALID,0.364062,
2011-01-01, 01:22:04,VALID,914.951,VALID,0,VALID,94.0425,VALID,0,VALID,20.4049,VALID,357,VALID,0.680859,
2011-01-01, 01:23:04,VALID,914.951,VALID,0,VALID,94.233,VALID,0,VALID,20.3854,VALID,357,VALID,0.455859,
2011-01-01, 01:24:04,VALID,914.951,VALID,0,VALID,94.3093,VALID,0,VALID,20.4049,VALID,356,VALID,0.389844,
2011-01-01, 01:25:04,VALID,914.967,VALID,0,VALID,94.3321,VALID,0,VALID,20.4049,VALID,357,VALID,0.398047,
2011-01-01, 01:26:04,VALID,914.927,VALID,0,VALID,94.4084,VALID,0,VALID,20.4244,VALID,357,VALID,0.248828,
2011-01-01, 01:27:04,VALID,914.927,VALID,0,VALID,94.4008,VALID,0,VALID,20.4634,VALID,357,VALID,0.302344,
2011-01-01, 01:28:04,VALID,914.911,VALID,0,VALID,94.2178,VALID,0,VALID,20.4634,VALID,357,VALID,0.682031,
2011-01-01, 01:29:04,VALID,914.918,VALID,0,VALID,94.1034,VALID,0,VALID,20.4439,VALID,357,VALID,0.876562,
2011-01-01, 01:30:04,VALID,914.91,VALID,0,VALID,94.2254,VALID,0,VALID,20.4033,VALID,19,VALID,0.780078,
2011-01-01, 01:31:04,VALID,914.88,VALID,0,VALID,94.1949,VALID,0,VALID,20.3628,VALID,19,VALID,0.618359,
2011-01-01, 01:32:04,VALID,914.871,VALID,0,VALID,94.2864,VALID,0,VALID,20.3838,VALID,18,VALID,0.725391,
2011-01-01, 01:33:04,VALID,914.852,VALID,0,VALID,94.3017,VALID,0,VALID,20.3659,VALID,18,VALID,0.834375,
2011-01-01, 01:34:04,VALID,914.858,VALID,0,VALID,94.4465,VALID,0,VALID,20.3448,VALID,18,VALID,0.615625,
2011-01-01, 01:35:04,VALID,914.854,VALID,0,VALID,94.4999,VALID,0,VALID,20.3448,VALID,18,VALID,0.758984,
2011-01-01, 01:36:04,VALID,914.874,VALID,0,VALID,94.66,VALID,0,VALID,20.3253,VALID,18,VALID,0.347266,
2011-01-01, 01:37:04,VALID,914.851,VALID,0,VALID,94.7896,VALID,0,VALID,20.3869,VALID,18,VALID,0.635156,
2011-01-01, 01:38:04,VALID,914.779,VALID,0,VALID,94.8963,VALID,0,VALID,20.3448,VALID,358,VALID,0.685547,
2011-01-01, 01:39:04,VALID,914.82,VALID,0,VALID,94.9496,VALID,0,VALID,20.3253,VALID,358,VALID,0.714063,
2011-01-01, 01:40:04,VALID,914.775,VALID,0,VALID,95.0183,VALID,0,VALID,20.3253,VALID,358,VALID,0.797656,
2011-01-01, 01:41:04,VALID,914.724,VALID,0,VALID,95.0564,VALID,0.107441,VALID,20.2863,VALID,358,VALID,0.711719,
2011-01-01, 01:42:04,VALID,914.708,VALID,0,VALID,95.1097,VALID,0,VALID,20.3074,VALID,358,VALID,0.550391,
2011-01-01, 01:43:04,VALID,914.697,VALID,0,VALID,95.1783,VALID,0.107441,VALID,20.2668,VALID,358,VALID,0.835547,
2011-01-01, 01:44:04,VALID,914.708,VALID,0,VALID,95.0945,VALID,0,VALID,20.2278,VALID,358,VALID,1.08633,
2011-01-01, 01:45:04,VALID,914.731,VALID,0,VALID,95.2165,VALID,0,VALID,20.2278,VALID,358,VALID,0.564062,
2011-01-01, 01:46:04,VALID,914.731,VALID,0,VALID,95.2165,VALID,0,VALID,20.2293,VALID,358,VALID,0.916797,
2011-01-01, 01:47:04,VALID,914.747,VALID,0,VALID,95.3003,VALID,0,VALID,20.2083,VALID,358,VALID,0.420703,
2011-01-01, 01:48:04,VALID,914.748,VALID,0,VALID,95.4147,VALID,0,VALID,20.2278,VALID,358,VALID,0.353125,
2011-01-01, 01:49:04,VALID,914.711,VALID,0,VALID,95.4375,VALID,0,VALID,20.2083,VALID,358,VALID,0.0886719,
2011-01-01, 01:50:04,VALID,914.704,VALID,0,VALID,95.4757,VALID,0,VALID,20.2278,VALID,358,VALID,0.0503906,
2011-01-01, 01:51:04,VALID,914.657,VALID,0,VALID,95.5062,VALID,0,VALID,20.2293,VALID,358,VALID,0.217187,
2011-01-01, 01:52:04,VALID,914.631,VALID,0,VALID,95.4985,VALID,0,VALID,20.2473,VALID,358,VALID,0,
2011-01-01, 01:53:04,VALID,914.592,VALID,0,VALID,95.5214,VALID,0,VALID,20.2668,VALID,358,VALID,0,
2011-01-01, 01:54:04,VALID,914.59,VALID,0,VALID,95.4985,VALID,0,VALID,20.2863,VALID,358,VALID,0.0457031,
2011-01-01, 01:55:04,VALID,914.588,VALID,0,VALID,95.4757,VALID,0,VALID,20.2863,VALID,358,VALID,0.114063,
2011-01-01, 01:56:04,VALID,914.571,VALID,0,VALID,95.4985,VALID,0,VALID,20.3253,VALID,358,VALID,0,
2011-01-01, 01:57:04,VALID,914.596,VALID,0,VALID,95.4833,VALID,0,VALID,20.3448,VALID,358,VALID,0,
2011-01-01, 01:58:04,VALID,914.606,VALID,0,VALID,95.4452,VALID,0,VALID,20.3838,VALID,358,VALID,0,
2011-01-01, 01:59:04,VALID,914.621,VALID,0,VALID,95.3918,VALID,0,VALID,20.4033,VALID,358,VALID,0,
2011-01-01, 02:00:04,VALID,914.586,VALID,0,VALID,95.3003,VALID,0.107441,VALID,20.4033,VALID,358,VALID,0.214062,
2011-01-01, 02:01:04,VALID,914.608,VALID,0,VALID,95.2165,VALID,0.107441,VALID,20.4244,VALID,358,VALID,0.255469,
2011-01-01, 02:02:04,VALID,914.57,VALID,0,VALID,95.186,VALID,0,VALID,20.4033,VALID,358,VALID,0.448438,
2011-01-01, 02:03:04,VALID,914.53,VALID,0,VALID,95.1097,VALID,0,VALID,20.4033,VALID,358,VALID,0.497266,
2011-01-01, 02:04:04,VALID,914.494,VALID,0,VALID,95.1631,VALID,0,VALID,20.4033,VALID,358,VALID,0.255469,
2011-01-01, 02:05:04,VALID,914.477,VALID,0,VALID,95.2241,VALID,0,VALID,20.4033,VALID,358,VALID,0.453906,
2011-01-01, 02:06:04,VALID,914.452,VALID,0,VALID,95.2927,VALID,0,VALID,20.4228,VALID,358,VALID,0.413672,
2011-01-01, 02:07:04,VALID,914.472,VALID,0,VALID,95.2851,VALID,0,VALID,20.4228,VALID,358,VALID,0.255078,
2011-01-01, 02:08:04,VALID,914.476,VALID,0,VALID,95.2546,VALID,0,VALID,20.4228,VALID,358,VALID,0.0792969,
2011-01-01, 02:09:04,VALID,914.49,VALID,0,VALID,95.1707,VALID,0.107441,VALID,20.4228,VALID,358,VALID,0,
2011-01-01, 02:10:04,VALID,914.502,VALID,0,VALID,95.0792,VALID,0,VALID,20.4228,VALID,358,VALID,0,
2011-01-01, 02:11:04,VALID,914.546,VALID,0,VALID,94.9649,VALID,0,VALID,20.4439,VALID,358,VALID,0.139453,
2011-01-01, 02:12:04,VALID,914.531,VALID,0,VALID,94.8429,VALID,0,VALID,20.4228,VALID,358,VALID,0.0652344,
2011-01-01, 02:13:04,VALID,914.543,VALID,0,VALID,94.6905,VALID,0.107441,VALID,20.4228,VALID,358,VALID,0,
2011-01-01, 02:14:04,VALID,914.524,VALID,0,VALID,94.6218,VALID,0,VALID,20.4033,VALID,358,VALID,0,
2011-01-01, 02:15:04,VALID,914.473,VALID,0,VALID,94.6523,VALID,0.107441,VALID,20.4244,VALID,358,VALID,0.334375,
2011-01-01, 02:16:04,VALID,914.483,VALID,0,VALID,94.6066,VALID,0.107441,VALID,20.4033,VALID,358,VALID,0.393359,
2011-01-01, 02:17:04,VALID,914.466,VALID,0,VALID,94.5913,VALID,0,VALID,20.3838,VALID,358,VALID,0.369531,
2011-01-01, 02:18:04,VALID,914.46,VALID,0,VALID,94.6676,VALID,0,VALID,20.3643,VALID,358,VALID,0.150391,
2011-01-01, 02:19:04,VALID,914.447,VALID,0,VALID,94.7819,VALID,0,VALID,20.3838,VALID,358,VALID,0.253906,
2011-01-01, 02:20:04,VALID,914.446,VALID,0,VALID,94.8124,VALID,0,VALID,20.3643,VALID,358,VALID,0.307813,
2011-01-01, 02:21:04,VALID,914.457,VALID,0,VALID,94.8505,VALID,0.107441,VALID,20.3643,VALID,358,VALID,0.4375,
2011-01-01, 02:22:04,VALID,914.437,VALID,0,VALID,94.9192,VALID,0.107441,VALID,20.3628,VALID,358,VALID,0.657812,
2011-01-01, 02:23:04,VALID,914.422,VALID,0,VALID,94.9268,VALID,0,VALID,20.3838,VALID,358,VALID,0.705469,
2011-01-01, 02:24:04,VALID,914.436,VALID,0,VALID,94.9039,VALID,0.107441,VALID,20.3838,VALID,358,VALID,0.569531,
2011-01-01, 02:25:04,VALID,914.435,VALID,0,VALID,94.7362,VALID,0,VALID,20.3854,VALID,358,VALID,0.381641,
2011-01-01, 02:26:04,VALID,914.447,VALID,0,VALID,94.7133,VALID,0,VALID,20.3643,VALID,358,VALID,0.04375,
2011-01-01, 02:27:04,VALID,914.475,VALID,0,VALID,94.7438,VALID,0,VALID,20.3854,VALID,358,VALID,0,
2011-01-01, 02:28:04,VALID,914.499,VALID,0,VALID,94.6828,VALID,0,VALID,20.3838,VALID,358,VALID,0,
2011-01-01, 02:29:04,VALID,914.453,VALID,0,VALID,94.6218,VALID,0,VALID,20.3643,VALID,358,VALID,0,
2011-01-01, 02:30:04,VALID,914.449,VALID,0,VALID,94.538,VALID,0,VALID,20.3674,VALID,358,VALID,0,
2011-01-01, 02:31:04,VALID,914.432,VALID,0,VALID,94.6371,VALID,0,VALID,20.3869,VALID,358,VALID,0.480469,
2011-01-01, 02:32:04,VALID,914.427,VALID,0,VALID,94.5456,VALID,0,VALID,20.3659,VALID,358,VALID,0.555859,
2011-01-01, 02:33:04,VALID,914.365,VALID,0,VALID,94.5761,VALID,0,VALID,20.3464,VALID,358,VALID,0.612891,
2011-01-01, 02:34:04,VALID,914.357,VALID,0,VALID,94.477,VALID,0,VALID,20.3269,VALID,358,VALID,0.629687,
2011-01-01, 02:35:04,VALID,914.358,VALID,0,VALID,94.5532,VALID,0,VALID,20.3074,VALID,358,VALID,0.523438,
2011-01-01, 02:36:04,VALID,914.357,VALID,0,VALID,94.8353,VALID,0,VALID,20.3074,VALID,358,VALID,0.561328,
2011-01-01, 02:37:04,VALID,914.368,VALID,0,VALID,94.6676,VALID,0,VALID,20.2684,VALID,358,VALID,0.790625,
2011-01-01, 02:38:04,VALID,914.322,VALID,0,VALID,94.7286,VALID,0,VALID,20.2489,VALID,358,VALID,0.846875,
2011-01-01, 02:39:04,VALID,914.334,VALID,0,VALID,94.7209,VALID,0,VALID,20.2293,VALID,358,VALID,0.857031,
2011-01-01, 02:40:04,VALID,914.292,VALID,0,VALID,94.7819,VALID,0,VALID,20.1903,VALID,358,VALID,0.992578,
2011-01-01, 02:41:04,VALID,914.292,VALID,0,VALID,94.9115,VALID,0,VALID,20.1708,VALID,358,VALID,0.919141,
2011-01-01, 02:42:04,VALID,914.281,VALID,0,VALID,95.0488,VALID,0,VALID,20.1513,VALID,358,VALID,0.779688,
2011-01-01, 02:43:04,VALID,914.248,VALID,0,VALID,95.0488,VALID,0,VALID,20.1108,VALID,358,VALID,0.6,
2011-01-01, 02:44:04,VALID,914.221,VALID,0,VALID,95.0869,VALID,0,VALID,20.1318,VALID,358,VALID,0.522656,
2011-01-01, 02:45:04,VALID,914.222,VALID,0,VALID,95.0716,VALID,0,VALID,20.1108,VALID,358,VALID,0.723437,
2011-01-01, 02:46:04,VALID,914.19,VALID,0,VALID,95.1174,VALID,0,VALID,20.0718,VALID,358,VALID,0.461328,
2011-01-01, 02:47:04,VALID,914.178,VALID,0,VALID,95.1174,VALID,0,VALID,20.0718,VALID,358,VALID,0.709375,
2011-01-01, 02:48:04,VALID,914.119,VALID,0,VALID,95.1631,VALID,0,VALID,20.0523,VALID,358,VALID,0.814844,
2011-01-01, 02:49:04,VALID,914.1,VALID,0,VALID,95.2317,VALID,0.107441,VALID,20.0538,VALID,358,VALID,0.745313,
2011-01-01, 02:50:04,VALID,914.087,VALID,0,VALID,95.2775,VALID,0,VALID,20.0133,VALID,358,VALID,0.522656,
2011-01-01, 02:51:04,VALID,914.101,VALID,0,VALID,95.3537,VALID,0.107441,VALID,19.9938,VALID,358,VALID,0.608594,
2011-01-01, 02:52:04,VALID,914.139,VALID,0,VALID,95.4452,VALID,0,VALID,19.9743,VALID,358,VALID,0.361328,
2011-01-01, 02:53:04,VALID,914.184,VALID,0,VALID,95.5367,VALID,0,VALID,19.9743,VALID,358,VALID,0.701563,
2011-01-01, 02:54:04,VALID,914.187,VALID,0,VALID,95.5976,VALID,0,VALID,19.9953,VALID,358,VALID,0.744922,
2011-01-01, 02:55:04,VALID,914.169,VALID,0,VALID,95.6434,VALID,0,VALID,19.9743,VALID,358,VALID,0.505078,
2011-01-01, 02:56:04,VALID,914.183,VALID,0,VALID,95.6662,VALID,0,VALID,19.9548,VALID,358,VALID,0.195313,
2011-01-01, 02:57:04,VALID,914.123,VALID,0,VALID,95.6967,VALID,0,VALID,19.9743,VALID,358,VALID,0.330078,
2011-01-01, 02:58:04,VALID,914.092,VALID,0,VALID,95.7272,VALID,0.107441,VALID,19.9743,VALID,358,VALID,0.344531,
2011-01-01, 02:59:04,VALID,914.091,VALID,0,VALID,95.7044,VALID,0,VALID,19.9743,VALID,358,VALID,0.229297,
2011-01-01, 03:00:04,VALID,914.047,VALID,0,VALID,95.651,VALID,0.107441,VALID,19.9743,VALID,358,VALID,0.583594,
2011-01-01, 03:01:04,VALID,914.033,VALID,0,VALID,95.6281,VALID,0,VALID,19.9743,VALID,358,VALID,0.804297,
2011-01-01, 03:02:04,VALID,913.991,VALID,0,VALID,95.6357,VALID,0,VALID,19.9548,VALID,358,VALID,0.809766,
2011-01-01, 03:03:04,VALID,913.961,VALID,0,VALID,95.6586,VALID,0,VALID,19.9353,VALID,358,VALID,0.884375,
2011-01-01, 03:04:04,VALID,913.963,VALID,0,VALID,95.6967,VALID,0,VALID,19.9353,VALID,358,VALID,0.733594,
2011-01-01, 03:05:04,VALID,913.967,VALID,0,VALID,95.7806,VALID,0,VALID,19.9353,VALID,358,VALID,0.101172,
2011-01-01, 03:06:04,VALID,913.992,VALID,0,VALID,95.8035,VALID,0,VALID,19.9548,VALID,358,VALID,0.963672,
2011-01-01, 03:07:04,VALID,914.001,VALID,0,VALID,95.8416,VALID,0.107441,VALID,19.9548,VALID,358,VALID,0.446094,
2011-01-01, 03:08:04,VALID,914.013,VALID,0,VALID,95.8568,VALID,0.107441,VALID,19.9548,VALID,358,VALID,0.429297,
2011-01-01, 03:09:04,VALID,914.014,VALID,0,VALID,95.8721,VALID,0,VALID,19.9548,VALID,358,VALID,0.241406,
2011-01-01, 03:10:04,VALID,913.972,VALID,0,VALID,95.8492,VALID,0,VALID,19.9548,VALID,358,VALID,0.116406,
2011-01-01, 03:11:04,VALID,913.944,VALID,0,VALID,95.8187,VALID,0,VALID,19.9548,VALID,358,VALID,0.142969,
2011-01-01, 03:12:04,VALID,913.938,VALID,0,VALID,95.8111,VALID,0,VALID,19.9548,VALID,358,VALID,0,
2011-01-01, 03:13:04,VALID,913.914,VALID,0,VALID,95.7958,VALID,0,VALID,19.9548,VALID,358,VALID,0,
2011-01-01, 03:14:04,VALID,913.925,VALID,0,VALID,95.8111,VALID,0,VALID,19.9758,VALID,358,VALID,0,
2011-01-01, 03:15:04,VALID,913.921,VALID,0,VALID,95.8187,VALID,0,VALID,19.9743,VALID,358,VALID,0,
2011-01-01, 03:16:04,VALID,913.885,VALID,0,VALID,95.7806,VALID,0.107441,VALID,19.9938,VALID,358,VALID,0.15,
2011-01-01, 03:17:04,VALID,913.912,VALID,0,VALID,95.7349,VALID,0,VALID,19.9938,VALID,358,VALID,0,
2011-01-01, 03:18:04,VALID,913.876,VALID,0,VALID,95.7272,VALID,0,VALID,19.9938,VALID,358,VALID,0,
2011-01-01, 03:19:04,VALID,913.877,VALID,0,VALID,95.6891,VALID,0,VALID,19.9938,VALID,358,VALID,0.289844,
2011-01-01, 03:20:04,VALID,913.866,VALID,0,VALID,95.6815,VALID,0,VALID,20.0133,VALID,358,VALID,0.308203,
2011-01-01, 03:21:04,VALID,913.88,VALID,0,VALID,95.6662,VALID,0,VALID,20.0328,VALID,358,VALID,0.276172,
2011-01-01, 03:22:04,VALID,913.88,VALID,0,VALID,95.651,VALID,0.107441,VALID,20.0328,VALID,358,VALID,0,
2011-01-01, 03:23:04,VALID,913.837,VALID,0,VALID,95.6357,VALID,0.107441,VALID,20.0328,VALID,358,VALID,0,
2011-01-01, 03:24:04,VALID,913.799,VALID,0,VALID,95.6129,VALID,0,VALID,20.0523,VALID,358,VALID,0,
2011-01-01, 03:25:04,VALID,913.782,VALID,0,VALID,95.5824,VALID,0,VALID,20.0523,VALID,358,VALID,0,
2011-01-01, 03:26:04,VALID,913.734,VALID,0,VALID,95.5748,VALID,0,VALID,20.0718,VALID,358,VALID,0,
2011-01-01, 03:27:04,VALID,913.737,VALID,0,VALID,95.5062,VALID,0,VALID,20.0718,VALID,358,VALID,0.00703125,
2011-01-01, 03:28:04,VALID,913.683,VALID,0,VALID,95.4223,VALID,0,VALID,20.0733,VALID,358,VALID,0.0324219,
2011-01-01, 03:29:04,VALID,913.708,VALID,0,VALID,95.468,VALID,0,VALID,20.0928,VALID,358,VALID,0.290625,
2011-01-01, 03:30:04,VALID,913.66,VALID,0,VALID,95.4147,VALID,0,VALID,20.0913,VALID,358,VALID,0,
2011-01-01, 03:31:04,VALID,913.636,VALID,0,VALID,95.4147,VALID,0,VALID,20.1108,VALID,358,VALID,0,
2011-01-01, 03:32:04,VALID,913.605,VALID,0,VALID,95.3994,VALID,0,VALID,20.1108,VALID,358,VALID,0,
2011-01-01, 03:33:04,VALID,913.619,VALID,0,VALID,95.3842,VALID,0.107441,VALID,20.1108,VALID,358,VALID,0.154687,
2011-01-01, 03:34:04,VALID,913.604,VALID,0,VALID,95.3384,VALID,0,VALID,20.1303,VALID,358,VALID,0.188281,
2011-01-01, 03:35:04,VALID,913.567,VALID,0,VALID,95.2622,VALID,0,VALID,20.1108,VALID,358,VALID,0.106641,
2011-01-01, 03:36:04,VALID,913.603,VALID,0,VALID,95.3689,VALID,0,VALID,20.1108,VALID,358,VALID,0.283984,
2011-01-01, 03:37:04,VALID,913.605,VALID,0,VALID,95.3308,VALID,0.107441,VALID,20.1108,VALID,358,VALID,0.415234,
2011-01-01, 03:38:04,VALID,913.575,VALID,0,VALID,95.3156,VALID,0,VALID,20.1108,VALID,358,VALID,0.386328,
2011-01-01, 03:39:04,VALID,913.573,VALID,0,VALID,95.2012,VALID,0,VALID,20.0898,VALID,358,VALID,0.513281,
2011-01-01, 03:40:04,VALID,913.559,VALID,0,VALID,95.0792,VALID,0,VALID,20.0913,VALID,358,VALID,0.666406,
2011-01-01, 03:41:04,VALID,913.575,VALID,0,VALID,94.942,VALID,0,VALID,20.0913,VALID,358,VALID,0.594141,
2011-01-01, 03:42:04,VALID,913.564,VALID,0,VALID,94.8582,VALID,0,VALID,20.1108,VALID,358,VALID,0.358203,
2011-01-01, 03:43:04,VALID,913.571,VALID,0,VALID,94.8963,VALID,0,VALID,20.1303,VALID,358,VALID,0.353125,
2011-01-01, 03:44:04,VALID,913.599,VALID,0,VALID,94.8963,VALID,0,VALID,20.1303,VALID,358,VALID,0.347266,
2011-01-01, 03:45:04,VALID,913.57,VALID,0,VALID,94.8429,VALID,0,VALID,20.1303,VALID,358,VALID,0.175,